CW5709 Weather Reports


Display with metric or nautical units.
time (UTC)temp
F
wind
direction
speed
MPH
gust
MPH
rain 1hr
in
rain 24hr
in
rain mn
in
humidity
%
barometer
mb
20260901231532 67 0.0 0.0 0.00 0.00 0.00 62 1012.5
20260901230036 67 0.0 0.0 0.00 0.00 0.00 61 1012.4
20260901224515 67 0.0 0.0 0.00 0.00 0.00 62 1012.4
20260901223018 67 0.0 0.0 0.00 0.00 0.00 61 1012.5
20260901221532 67 0.0 0.0 0.00 0.00 0.00 61 1012.4
20260901220010 67 0.0 0.0 0.00 0.00 0.00 61 1012.4
20260901214526 68 0.0 0.0 0.00 0.00 0.00 59 1012.2
20260901213018 68 0.0 0.0 0.00 0.00 0.00 59 1012.3
20260901211525 67 0.0 0.0 0.00 0.00 0.00 61 1012.2
20260901210004 68 0.0 0.0 0.00 0.00 0.00 60 1012.3
20260901204513 67 0.0 0.0 0.00 0.00 0.00 61 1012.2
20260901203014 67 0.0 0.0 0.00 0.00 0.00 62 1012.3
20260901201523 66 0.0 0.0 0.00 0.00 0.00 64 1012.4
20260901200033 66 0.0 0.0 0.00 0.00 0.00 63 1012.4
20260901194516 66 0.0 0.0 0.00 0.00 0.00 63 1012.4
20260901193014 66 0.0 0.0 0.00 0.00 0.00 64 1012.5
20260901191519 66 0.0 0.0 0.00 0.00 0.00 63 1012.7
20260901190030 67 0.0 0.0 0.00 0.00 0.00 64 1012.8
20260901184526 67 0.0 0.0 0.00 0.00 0.00 64 1012.8
20260901183007 67 0.0 0.0 0.00 0.00 0.00 64 1012.8
20260901181520 66 0.0 0.0 0.00 0.00 0.00 67 1012.8
20260901180023 65 0.0 0.0 0.00 0.00 0.00 69 1012.8
20260901174528 63 0.0 0.0 0.00 0.00 0.00 73 1012.9
20260901173032 63 0.0 0.0 0.00 0.00 0.00 77 1012.9
20260901171511 62 0.0 0.0 0.00 0.00 0.00 79 1013.0
20260901170017 61 0.0 0.0 0.00 0.00 0.00 81 1012.9
20260901164524 61 0.0 0.0 0.00 0.00 0.00 81 1013.0
20260901163036 60 0.0 0.0 0.00 0.00 0.00 84 1013.0
20260901161532 60 0.0 0.0 0.00 0.00 0.00 84 1013.2
20260901160016 59 0.0 0.0 0.00 0.00 0.00 85 1013.4
20260901154527 59 0.0 0.0 0.00 0.00 0.00 84 1013.4
20260901153042 59 0.0 0.0 0.00 0.00 0.00 83 1013.3
20260901151532 59 0.0 0.0 0.00 0.00 0.00 81 1013.2
20260901150035 59 0.0 0.0 0.00 0.00 0.00 81 1013.1
20260901144525 59 0.0 0.0 0.00 0.00 0.00 81 1013.1
20260901143028 59 0.0 0.0 0.00 0.00 0.00 81 1013.0
20260901141529 59 0.0 0.0 0.00 0.00 0.00 80 1013.0
20260901140031 59 0.0 0.0 0.00 0.00 0.00 80 1012.8
20260901134531 59 0.0 0.0 0.00 0.00 0.00 79 1012.7
20260901133025 59 0.0 0.0 0.00 0.00 0.00 79 1012.7
20260901131506 59 0.0 0.0 0.00 0.00 0.00 79 1012.5
20260901130010 59 0.0 0.0 0.00 0.00 0.00 79 1012.5
20260901124516 59 0.0 0.0 0.00 0.00 0.00 79 1012.4
20260901123026 59 0.0 0.0 0.00 0.00 0.00 78 1012.5
20260901121530 59 0.0 0.0 0.00 0.00 0.00 79 1012.5
20260901120008 59 0.0 0.0 0.00 0.00 0.00 78 1012.4
20260901114512 59 0.0 0.0 0.00 0.00 0.00 78 1012.2
20260901113021 59 0.0 0.0 0.00 0.00 0.00 78 1012.3
20260901111524 59 0.0 0.0 0.00 0.00 0.00 78 1012.2
20260901110027 59 0.0 0.0 0.00 0.00 0.00 78 1012.1
20260901104511 59 0.0 0.0 0.00 0.00 0.00 78 1012.1
20260901103014 59 0.0 0.0 0.00 0.00 0.00 78 1012.1
20260901101519 59 0.0 0.0 0.00 0.00 0.00 77 1012.0
20260901100029 59 0.0 0.0 0.00 0.00 0.00 77 1012.0
20260901094536 59 0.0 0.0 0.00 0.00 0.00 76 1012.0
20260901093011 59 0.0 0.0 0.00 0.00 0.00 76 1012.1
20260901091519 59 0.0 0.0 0.00 0.00 0.00 77 1012.1
20260901090025 59 0.0 0.0 0.00 0.00 0.00 78 1012.1
20260901084527 59 0.0 0.0 0.00 0.00 0.00 80 1012.0
20260901083030 58 0.0 0.0 0.00 0.00 0.00 79 1011.8
20260901081534 58 0.0 0.0 0.00 0.00 0.00 79 1011.8
20260901080020 59 0.0 0.0 0.00 0.00 0.00 78 1011.8
20260901074535 59 0.0 0.0 0.00 0.00 0.00 78 1011.8
20260901073037 59 0.0 0.0 0.00 0.00 0.00 78 1011.8
20260901071504 59 0.0 0.0 0.00 0.00 0.00 78 1011.7
20260901070004 59 0.0 0.0 0.00 0.00 0.00 77 1011.7
20260901064505 59 0.0 0.0 0.00 0.00 0.00 77 1011.6
20260901063010 60 0.0 0.0 0.00 0.00 0.00 77 1011.6
20260901061504 60 0.0 0.0 0.00 0.00 0.00 77 1011.6
20260901060003 60 0.0 0.0 0.00 0.00 0.00 76 1011.7
20260901054503 60 0.0 0.0 0.00 0.00 0.00 76 1011.5
20260901053006 60 0.0 0.0 0.00 0.00 0.00 76 1011.4
20260901051510 60 0.0 0.0 0.00 0.00 0.00 75 1011.1
20260901050004 61 0.0 0.0 0.00 0.00 0.00 74 1010.7
20260901044507 61 0.0 0.0 0.00 0.00 0.00 73 1010.8
20260901043006 62 0.0 0.0 0.00 0.00 0.00 73 1010.8
20260901041504 62 0.0 0.0 0.00 0.00 0.00 72 1010.6
20260901040005 62 0.0 0.0 0.00 0.00 0.00 70 1010.3
20260901034504 63 0.0 0.0 0.00 0.00 0.00 69 1010.0
20260901033008 64 0.0 0.0 0.00 0.00 0.00 67 1009.7
20260901031506 65 0.0 0.0 0.00 0.00 0.00 65 1009.5
20260901030005 66 0.0 0.0 0.00 0.00 0.00 63 1009.3
20260901024508 68 0.0 0.0 0.00 0.00 0.00 61 1009.2
20260901023005 69 0.0 0.0 0.00 0.00 0.00 59 1009.0
20260901021510 70 0.0 0.0 0.00 0.00 0.00 56 1008.9
20260901020005 71 0.0 0.0 0.00 0.00 0.00 54 1008.8
20260901014518 72 0.0 0.0 0.00 0.00 0.00 52 1008.8
20260901013006 73 0.0 0.0 0.00 0.00 0.00 49 1008.8
20260901011511 75 0.0 0.0 0.00 0.00 0.00 46 1008.7
20260901010007 76 0.0 0.0 0.00 0.00 0.00 44 1008.6
20260901004507 77 0.0 0.0 0.00 0.00 0.00 43 1008.5
20260901003007 78 0.0 0.0 0.00 0.00 0.00 39 1008.5
20260901001508 79 0.0 0.0 0.00 0.00 0.00 38 1008.2
20260901000010 81 0.0 0.0 0.00 0.00 0.00 37 1008.3
20260831234509 82 0.0 0.0 0.00 0.00 0.00 38 1008.3
20260831233014 83 0.0 0.0 0.00 0.00 0.00 36 1008.2